Location: Atlantic Beach
(40.5890°N, 73.7290°W)
Time: 08:46:06
(UTC+00:00)

Envisat - Pass Details

Date: 28 January 2021
Orbit: 764 x 766 km, 98.1° (Epoch: 24 February)

Event Time Altitude Azimuth Distance (km) Brightness Sun altitude
Rises 09:25:21 0° 31° (NNE) 3,238 6.7 -31.0°
Reaches altitude 10° 09:28:34 10° 53° (NE) 2,306 6.1 -30.3°
Maximum altitude 09:31:40 16° 91° (E) 1,907 5.8 -29.8°
Drops below altitude 10° 09:34:46 10° 129° (SE) 2,295 6.0 -29.2°
Sets 09:37:56 0° 150° (SSE) 3,215 6.6 -28.6°
